Location: Fort Frances
(48.6170°N, 93.4170°W)
Time: 01:20:32
(UTC-05:00)

Daily predictions for brighter satellites

Satellite Brightness Start Highest point End
(mag) Time Altitude Azimuth Time Altitude Azimuth Time Altitude Azimuth
DNEPR-1 R/B 4.0 00:01:17 10° NW 00:04:54 62° NW 00:04:54 62° NW
CZ-4 R/B 4.0 00:01:29 10° N 00:06:01 72° NW 00:06:01 72° NW
Cosmos 1606 Rocket 4.3 00:10:17 50° NNE 00:10:17 50° NNE 00:13:38 10° NNE
Mayak 1.1 00:10:40 10° NE 00:11:52 16° NE 00:11:52 16° NE
NOSS 3-4 (A) 3.5 00:13:13 46° SW 00:15:16 79° NW 00:21:53 10° NE
NOSS 3-4 (C) 3.5 00:13:24 47° SW 00:15:21 80° NW 00:21:59 10° NE
CENTAUR R/B 3.0 00:07:51 10° NW 00:15:38 82° SW 00:17:32 58° SSE
Lacrosse 5 3.2 00:11:24 10° W 00:16:09 38° NNW 00:20:54 10° NE
CZ-4B R/B 3.6 00:15:45 10° NNE 00:19:59 66° NNW 00:19:59 66° NNW
NOSS 0 Rocket 4.1 00:20:33 49° WSW 00:22:12 68° WNW 00:28:26 10° NNE
CZ-2C R/B 2.9 00:18:26 10° NNE 00:23:15 61° ENE 00:23:15 61° ENE
Cosmos 2219 Rocket 3.2 00:22:53 27° WSW 00:25:25 43° NW 00:30:49 10° NNE
ATLAS CENTAUR R/B 3.1 00:24:03 10° NW 00:25:49 27° NNW 00:25:49 27° NNW
BREEZE-M DEB (TANK) 3.2 00:17:14 10° W 00:29:48 85° N 00:30:19 73° ENE
Meteor 1-24 Rocket 3.9 00:25:05 10° N 00:30:53 66° ENE 00:30:57 65° E
CZ-2C R/B 3.3 00:32:31 57° NW 00:32:31 57° NW 00:36:34 10° NNW
Meteor 2-5 Rocket 3.7 00:27:38 10° NNW 00:33:34 80° W 00:33:36 80° WSW
Cosmos 2058 Rocket 4.0 00:35:07 45° NNE 00:35:07 45° NNE 00:38:12 10° N
USA 215 3.5 00:31:04 36° E 00:33:52 67° NNE 00:40:22 10° NW
SL-16 R/B 2.5 00:35:35 58° ENE 00:35:35 58° ENE 00:40:21 10° NNE
Cosmos 2228 4.1 00:36:57 43° NNE 00:36:57 43° NNE 00:39:57 10° NNE
RESURS DK-1 3.8 00:49:53 36° N 00:49:53 36° N 00:52:39 10° NNE
COSMOS 2455 3.0 00:44:04 10° NW 00:49:32 61° W 00:49:32 61° W
Cosmos 1943 Rocket 3.8 00:45:41 10° NNW 00:50:22 27° NE 00:52:18 22° ENE
Cosmos 2184 Rocket 3.9 00:50:23 70° WSW 00:50:45 72° W 00:56:59 10° N
ATLAS CENTAUR R/B 2.8 00:39:10 10° NW 00:50:45 88° SW 00:50:49 87° S
Terra 4.4 00:51:20 10° W 00:51:43 10° W 00:52:36 10° WNW
Cosmos 2333 Rocket 3.5 00:49:40 24° W 00:52:09 35° NW 00:57:19 10° NNE
Cosmos 2074 Rocket 4.1 00:52:44 64° WSW 00:53:15 67° WNW 00:59:30 10° N
Nadezhda 3 Rocket 3.9 00:53:05 10° N 00:59:29 88° W 00:59:41 85° S
ALOS 2 4.0 01:07:50 33° NW 01:07:50 33° NW 01:10:37 10° NNW
Cosmos 2341 Rocket 4.0 01:07:32 66° E 01:07:32 66° E 01:13:44 10° NNE
Cosmos 2369 Rocket 2.6 01:04:39 10° NNW 01:10:17 55° ENE 01:10:38 54° ENE
CZ-4B R/B 4.4 01:12:54 15° NNE 01:12:54 15° NNE 01:13:36 10° N
Cosmos 2237 Rocket 3.4 01:09:10 29° W 01:10:54 35° NW 01:16:05 10° NNE
In-Cosmos 22 4.3 01:08:46 10° NNW 01:13:21 63° NW 01:13:21 63° NW
Cosmos 1295 Rocket 4.5 01:19:13 69° E 01:19:16 69° E 01:25:28 10° NNE
Meteor 2-19 Rocket 4.4 01:24:26 72° W 01:24:31 73° W 01:30:38 10° N
Cosmos 1943 4.4 01:26:52 31° E 01:26:52 31° E 01:30:58 10° NE
Cosmos 2366 rocket 4.5 01:31:02 48° E 01:31:23 49° E 01:37:27 10° NNE
Cosmos 1727 Rocket 4.4 01:26:55 10° N 01:32:57 51° ENE 01:33:41 49° E
Iridium 4 Rocket 4.1 01:39:47 43° NNW 01:39:47 43° NNW 01:42:47 10° N
Cosmos 1937 Rocket 3.7 01:37:48 10° NNW 01:42:43 68° NNE 01:42:43 68° NNE
GEOS 3 Rocket 3.7 01:45:46 75° NNE 01:45:46 75° NNE 01:50:49 10° NW
Cosmos 1898 Rocket 3.8 01:42:49 10° NNW 01:47:11 60° NW 01:47:11 60° NW
Mayak 0.3 01:45:48 10° N 01:48:32 32° NNW 01:48:32 32° NNW
Cosmos 2154 Rocket 4.4 01:49:40 47° W 01:50:07 48° WNW 01:56:07 10° N
Cosmos 1570 Rocket 4.3 01:56:26 64° NW 01:56:26 64° NW 02:01:15 10° NNE
Cosmos 468 Rocket 4.3 01:58:58 58° ENE 01:58:58 58° ENE 02:03:21 10° NNE
Lacrosse 5 3.5 01:55:33 10° WNW 02:00:08 33° N 02:04:43 10° ENE
Cosmos 2263 4.1 01:54:35 10° NNW 01:59:52 79° NNW 01:59:52 79° NNW
Cosmos 990 Rocket 4.2 01:58:05 10° NNW 02:02:41 68° NNW 02:02:41 68° NNW
CZ-2C R/B 4.3 01:59:32 10° N 02:03:40 23° WNW 02:04:46 22° WNW
USA 229 DEB 4.4 01:56:47 10° NW 02:03:44 54° NE 02:10:50 10° ESE
SL-08 R/B 4.4 02:03:13 73° SSE 02:03:46 79° E 02:10:16 10° N
USA 229 4.4 01:56:54 10° NW 02:03:50 53° NE 02:10:56 10° ESE
Cosmos 1959 Rocket 4.3 02:03:56 84° S 02:04:09 90° ENE 02:10:18 10° N
Meteor 2-14 Rocket 4.3 02:04:18 80° SE 02:04:35 82° E 02:10:47 10° NNE
CENTAUR R/B 4.4 01:59:38 10° WNW 02:04:41 23° W 02:04:41 23° W
Cosmos 1470 4.3 02:07:25 34° NNE 02:07:25 34° NNE 02:09:42 10° N
Meteor 2-15 4.4 01:59:48 10° NNW 02:05:48 66° W 02:05:48 66° W
Cosmos 1603 3.8 02:10:06 67° WNW 02:10:10 67° WNW 02:15:48 10° NNE
Cosmos 2150 Rocket 4.3 02:08:45 10° NNW 02:12:56 56° NW 02:12:56 56° NW
USA 215 3.7 02:18:24 45° W 02:18:24 45° W 02:23:24 10° WNW
SL-16 R/B 3.8 02:17:27 23° WNW 02:19:20 27° NW 02:24:07 10° NNE
SL-8 Rocket 4.1 02:19:57 59° W 02:20:24 60° WNW 02:26:35 10° N
PSLV R/B 4.1 02:16:22 10° NNE 02:20:13 60° NNE 02:20:13 60° NNE
Cosmos 1814 Rocket 4.1 02:22:21 72° ENE 02:22:21 72° ENE 02:27:18 10° NNE
Cosmos 841 Rocket 4.0 02:24:38 50° E 02:24:38 50° E 02:29:25 10° NNE
Meteor 1-11 4.3 02:20:47 10° N 02:26:24 68° ENE 02:27:07 61° ESE
Resurs 1-4 Rocket 4.0 02:24:09 10° NE 02:27:55 20° E 02:29:31 17° ESE
ADEOS Rocket 3.4 02:23:18 10° NNE 02:28:32 43° E 02:29:14 41° ESE
Cosmos 2218 Rocket 4.1 02:29:48 58° WSW 02:30:29 61° WNW 02:36:51 10° N
H-2A R/B 3.5 02:27:28 10° NNE 02:30:06 41° N 02:30:06 41° N
Cosmos 1953 4.1 02:34:47 25° NW 02:34:47 25° NW 02:37:06 10° N
Cosmos 1943 Rocket 2.4 02:29:05 10° NNW 02:33:47 57° WNW 02:33:47 57° WNW
SL-16 R/B 3.4 02:33:19 22° SE 02:37:03 46° ENE 02:42:56 10° N
Cosmos 1656 Rocket 3.9 02:32:33 10° NNW 02:38:16 69° ENE 02:39:54 46° SE
ARIANE 5 R/B 4.5 02:36:04 10° NE 02:39:58 21° E 02:41:55 17° ESE
Cosmos-2242 3.6 02:40:54 56° NNW 02:40:54 56° NNW 02:44:30 10° N
Cosmos 1500 Rocket 3.8 02:40:38 10° N 02:44:39 66° NE 02:44:39 66° NE
CZ-2D R/B 3.7 02:40:59 10° NE 02:45:30 27° E 02:47:15 22° ESE
Cosmos 2058 3.5 02:42:25 10° N 02:45:56 55° NE 02:45:56 55° NE
Cosmos 332 Rocket 4.4 02:47:09 45° WNW 02:47:09 45° WNW 02:51:53 10° NNE
SL-24 R/B - RUBIN 2 4.5 02:48:20 56° WSW 02:49:37 72° NW 02:55:39 10° NE
Cosmos 2369 Rocket 3.6 02:49:13 10° NW 02:52:23 24° WNW 02:52:23 24° WNW
Cosmos 1000 Rocket 4.4 02:53:32 10° NNW 02:59:49 79° W 03:01:08 57° SSW
Cosmos 372 Rocket 3.9 03:01:17 10° NNW 03:06:30 87° ENE 03:07:27 60° SSE
Cosmos 2221 3.3 03:07:30 41° ESE 03:08:01 43° E 03:12:07 10° NNE
Cosmos 371 Rocket 4.2 03:08:47 35° WNW 03:09:08 36° WNW 03:13:39 10° N
Cosmos 1626 3.3 03:05:33 10° NNW 03:07:57 37° NNW 03:07:57 37° NNW
Cosmos 1943 3.7 03:08:41 41° W 03:09:50 47° NW 03:15:20 10° NNE
Cosmos 2239 Rocket 4.4 03:09:32 51° S 03:11:17 89° E 03:17:37 10° N
Cosmos 1805 Rocket 4.4 03:09:18 10° N 03:13:38 48° ENE 03:15:00 35° SE
Cosmos 540 Rocket 3.5 03:13:30 58° SSE 03:14:17 68° ESE 03:19:23 10° NNE
Cosmos 1763 Rocket 3.8 03:15:41 47° W 03:16:14 50° WNW 03:21:11 10° NNE
Cosmos 1315 Rocket 4.4 03:12:56 10° N 03:16:38 33° ENE 03:18:34 21° ESE
CBERS-1 3.9 03:13:35 10° NNE 03:18:44 85° ESE 03:19:40 61° S
AQUA 3.7 03:15:52 10° NNE 03:20:41 81° ESE 03:21:23 64° S
Cosmos 1535 Rocket 4.5 03:20:25 47° SSW 03:22:26 84° W 03:28:53 10° N
Cosmos 1726 3.9 03:22:36 22° ESE 03:23:32 25° E 03:26:38 10° NNE
Cosmos 2151 3.7 03:22:37 10° NNW 03:25:51 39° WNW 03:25:51 39° WNW
Cosmos 1842 Rocket 3.8 03:30:23 51° WNW 03:30:23 51° WNW 03:34:36 10° N
UNK 3.6 03:30:01 63° S 03:30:44 82° WSW 03:35:20 10° NNW
Cosmos 836 Rocket 4.4 03:31:19 55° SW 03:32:31 81° WNW 03:37:52 10° NNE
Cosmos 2098 Rocket 3.4 03:33:28 51° SSW 03:34:51 76° W 03:39:32 10° N
Cosmos 304 Rocket 4.0 03:35:49 48° W 03:36:30 53° WNW 03:41:13 10° NNE
Gblst 52 Del rocket 4.3 03:36:12 34° W 03:38:55 79° NNW 03:44:32 10° ENE
Cosmos 1125 Rocket 3.8 03:35:21 10° NW 03:40:19 44° WSW 03:40:23 44° WSW
UNKNOWN OBJECT B 4.3 03:38:20 10° NNE 03:42:03 33° E 03:43:54 22° SE
Sich 1 3.4 03:39:04 10° N 03:43:27 64° ENE 03:45:34 29° SSE
Lacrosse 5 2.3 03:38:48 10° NW 03:43:51 63° NNE 03:48:53 10° ESE
SL-08 R/B 4.0 03:45:43 37° W 03:45:43 37° W 03:49:56 10° NNW
MOZ.5/SAFIR/RUBIN 5/SL-8 4.0 03:42:45 22° SSE 03:45:42 69° ENE 03:50:24 10° N
Cosmos 2285 Rocket 4.2 03:43:29 31° S 03:46:39 67° ESE 03:53:00 10° NNE
Cosmos 1400 Rocket 2.7 03:43:21 10° NNW 03:47:12 62° W 03:47:12 62° W
ERS-1 4.4 03:43:37 10° NNE 03:48:37 87° ESE 03:50:23 41° SSW
Helios 1A Rocket 3.8 03:45:09 10° N 03:48:52 34° WNW 03:49:05 34° WNW
IRS-1C 4.1 03:43:47 10° N 03:49:07 71° WNW 03:50:55 42° SW
NPP 3.9 03:43:56 10° N 03:49:11 53° WNW 03:50:48 39° WSW
Cosmos 1242 Rocket 3.9 03:53:59 26° WNW 03:53:59 26° WNW 03:56:36 10° N
USA 229 DEB 4.0 03:47:56 10° NW 03:54:44 48° WSW 04:01:39 10° S
USA 229 4.0 03:48:03 10° NW 03:54:51 48° WSW 04:01:46 10° SSE
NOSS 3-1 (A) 4.0 03:52:29 10° NW 03:59:55 86° NE 04:08:18 10° SE
USA 161 3.8 04:01:24 12° E 04:02:04 13° ENE 04:03:08 10° NE
Resurs 1-4 Rocket 2.1 04:03:00 10° N 04:08:15 67° WNW 04:10:36 33° SW
Cosmos 2123 Rocket 4.4 04:02:40 10° NNW 04:08:31 43° W 04:11:00 30° SW
COSMOS 2406 3.2 04:07:20 33° SW 04:09:59 78° WNW 04:15:44 10° NNE
ADEOS Rocket 3.7 04:09:11 10° N 04:13:59 32° WNW 04:16:10 24° WSW
Cosmos 1633 Rocket 2.9 04:10:35 10° NNW 04:14:59 75° W 04:17:29 25° S
Cosmos 1908 3.9 04:14:57 34° W 04:15:25 36° WNW 04:19:01 10° N
Cosmos 1980 Rocket 4.2 04:13:42 10° NNW 04:18:37 30° NE 04:23:31 10° ESE
Cosmos 1459 Rocket 4.3 04:13:16 11° S 04:19:02 65° E 04:25:02 10° NNE
ARIANE 5 R/B 2.6 04:14:21 10° N 04:19:32 63° WNW 04:22:15 28° SW
Cosmos 1300 2.7 04:18:29 31° S 04:20:14 83° E 04:24:06 10° N
Cosmos 2228 Rocket 3.7 04:16:58 15° SSE 04:20:33 54° E 04:24:53 10° NNE
SL-16 R/B 3.1 04:18:24 27° SW 04:20:48 36° W 04:26:29 10° NNW
CZ-2D R/B 2.5 04:20:39 10° N 04:25:51 50° WNW 04:28:34 26° SW
Cosmos 2278 3.8 04:21:05 10° NNW 04:26:47 82° ENE 04:32:26 10° SSE
NOSS 3-1 (C) 4.1 04:21:06 10° NW 04:28:26 59° WSW 04:36:33 10° SSE
SL-27 R/B 2.5 04:32:31 36° SW 04:33:40 60° WNW 04:37:07 10° NNE
Cosmos 1697 Rocket 3.5 04:28:18 10° NNW 04:33:54 56° ENE 04:39:27 10° SE
Cosmos 1455 4.1 04:33:05 10° SSE 04:36:20 28° E 04:39:35 10° NNE
Cosmos 1328 Rocket 3.4 04:37:57 18° SSW 04:41:06 82° W 04:45:29 10° N
MOS 1 Rocket 3.9 04:40:28 10° N 04:44:24 34° WNW 04:46:36 21° WSW
Cosmos 2221 4.0 04:44:23 18° W 04:45:48 21° WNW 04:49:08 10° NNW
IRS-1D 4.4 04:43:20 10° N 04:47:56 34° WNW 04:50:58 19° WSW
Cosmos 2061 Rocket 4.1 04:44:19 10° S 04:50:46 85° W 04:57:14 10° N
Cosmos 1315 Rocket 4.1 04:49:50 10° NW 04:53:04 23° W 04:54:15 20° WSW
ADEOS II 2.5 04:49:55 10° NNE 04:55:10 65° ESE 05:00:23 10° S
Cosmos 773 Rocket 4.0 04:50:51 15° SSW 04:55:20 84° WNW 05:00:41 10° NNE
Cosmos 2082 Rocket 3.0 04:50:30 10° S 04:55:51 48° ESE 05:01:16 10° NE
Cosmos 1933 Rocket 3.6 04:54:13 10° NNW 04:58:37 58° W 05:02:59 10° S
Cosmos 1726 3.4 04:57:13 19° WSW 04:58:47 26° WNW 05:01:57 10° NNW
Cosmos 2016 Rocket 3.9 04:55:18 10° S 05:01:25 88° W 05:07:33 10° N
COSMOS 2487 3.2 05:00:08 10° S 05:03:34 52° ESE 05:07:03 10° NNE
Tiangong 2 3.3 05:02:41 12° SSW 05:04:18 16° SSE 05:06:24 10° ESE
PSLV R/B 4.1 05:05:15 10° NNE 05:09:26 75° ESE 05:13:33 10° S
Cosmos 1151 Rocket 3.0 05:05:20 10° SSW 05:09:36 71° W 05:13:54 10° N
Meteor 2-3 Rocket 3.7 05:04:46 10° NNW 05:10:22 66° W 05:15:59 10° S
CZ-4B R/B 4.1 05:05:05 10° NNE 05:10:25 49° E 05:15:37 10° S
BREEZE-M DEB (TANK) 2.5 05:07:18 10° W 05:11:26 42° SSW 05:13:19 10° SE
Cosmos 1892 2.9 05:11:27 10° NNW 05:15:10 49° W 05:18:53 10° S
CZ-2D R/B 4.4 05:11:59 10° N 05:15:29 29° WNW 05:18:27 13° WSW
Cosmos 1725 Rocket 4.1 05:09:25 10° S 05:15:36 86° E 05:21:49 10° N
UNKNOWN OBJECT B 4.1 05:13:02 10° N 05:16:26 26° WNW 05:19:22 13° WSW
Shenzhou-11 Module 3.8 05:15:35 12° SSW 05:17:33 20° SSE 05:19:56 10° ESE
Okean O Rocket 2.0 05:13:10 10° NNE 05:17:37 66° ESE 05:21:59 10° S
Landsat 4 3.8 05:17:05 10° SSE 05:20:50 84° ENE 05:24:38 10° NNW
Cosmos 2100 Rocket 4.4 05:14:56 10° SW 05:21:01 46° WNW 05:27:07 10° N
Cosmos 1802 Rocket 4.2 05:15:04 10° SSW 05:21:10 56° WNW 05:27:23 10° N
Cosmos 1656 3.9 05:15:56 10° NW 05:21:28 51° WSW 05:26:57 10° S
Cosmos 2369 4.1 05:16:28 10° NW 05:21:43 40° WSW 05:26:55 10° S
Cosmos 1825 2.9 05:21:29 10° N 05:25:15 58° ENE 05:29:01 10° SSE
Lacrosse 5 2.4 05:22:03 10° WNW 05:26:39 35° SW 05:31:13 10° SSE
Cosmos 1408 3.0 05:24:17 10° N 05:27:55 66° ENE 05:31:30 10° SSE
Cosmos 2322 Rocket 4.0 05:23:18 10° NNW 05:28:31 36° NE 05:33:41 10° ESE
Cosmos 192 4.4 05:23:57 10° SSW 05:28:55 83° WNW 05:33:55 10° NNE
USA 161 3.0 05:31:50 10° W 05:31:50 10° W 05:32:02 10° W
CZ-4B R/B 3.2 05:30:55 10° N 05:35:21 70° WNW 05:39:52 10° SSW
Tsikada Rocket 4.1 05:30:47 10° NNW 05:36:59 60° W 05:43:13 10° S
SL-16 R/B 3.7 05:34:55 10° NNW 05:40:20 43° NE 05:45:43 10° SE
Meteor 1-27 4.5 05:35:25 10° SSW 05:40:55 52° WNW 05:46:23 10° N
Cosmos 1371 Rocket 4.0 05:38:44 10° NNW 05:43:58 72° WSW 05:49:12 10° SSE
ATLAS 2AS CENTAUR R/B 3.2 05:36:37 10° NW 05:44:46 87° NE 05:52:21 10° SE
